Weather in Maliy Mayak

Russia / Republic of Crimea     44°36′42″N   34°21′41″E
temp.,
°C
wind,
m/s
gust,
m/s
humid.,
%
clouds,
%
prec.,
mm/h
press.,
hPa
HPBL,
m
3 march, wed
wed300:00+3nw557351 0.0 1025268
03:00+4wnw457550 0.0 1024312
06:00+6nw3477100 0.1 1023438
09:00+4nnw557278 0.1 1025528
12:00+5nnw235529 0.0 1026751
15:00+6ssw135214 0.0 1027590
18:00+5se126112 0.0 1028173
21:00+4nnw33669 0.0 1029124
4 march, thu
thu400:00+4nnw33640 0.0 1029115
03:00+4nw226012 0.0 1028109
06:00+4nnw11609 0.0 1027130
09:00+5wnw11615 0.0 1027244
12:00+6sw54630 0.0 1025652
15:00+6sw77670 0.0 1023532
18:00+5sw67740 0.0 1021466
21:00+4wsw67770 0.0 1021505
5 march, fri
fri500:00+4sw68791 0.0 1020495
03:00+4wsw68780 0.0 1019440
06:00+4wsw67780 0.0 1018388
09:00+6sw56740 0.0 1017427
12:00+7sw57710 0.0 1016489
15:00+8sw79720 0.0 1015541
18:00+7wsw6107767 0.0 1014359
21:00+7wsw698474 0.0 1014376
6 march, sat
sat600:00+7w578062 0.0 1014182
03:00+8w556678 0.0 101467
06:00+8w457053 0.0 101561
09:00+9w347076 0.0 101650
12:00+9ene4574100 0.0 1017222
15:00+7e3484100 0.3 1018407
18:00+4nnw5686100 2.6 1019380
21:00+2n4570100 5.8 1022448
7 march, sun
sun700:00+2nnw455495 0.1 1025686
03:00+1nnw344761 0.1 1026545
06:000nnw44600 0.0 1027457
09:00+1nnw34380 0.0 1028498
12:00+2sw23310 0.0 10281315
15:00+3wsw23426 0.0 10261283
18:00+3nw335035 0.0 10241166
21:00+1nw325820 0.0 1024406